Dauntless Aviation
Airports Europe Croatia
LDDU
DBV

Dubrovnik Airport

Dubrovnik, CROATIA

Airport Info
Suggest Updated Information for this Airport

Location

Latitude / Longitude: 42°33'41"N / 18°16'5"E
  42°33.684'N / 18°16.092'E
  42.5614 / 18.2682

Nearby radio navigation aids

CV DUBROVNIK NDB. 117.6° 2.8nm from CV to field.
DBK DUBROVNIK VOR/DME on field.
GR DUBROVNIK NDB. 294.2° 2.9nm from GR to field.
KLP KOLOCEP NDB. 118.0° 12.7nm from KLP to field.

Runway Information

Runway 12 /30

Dimensions: 10827 x 148 ft.
Surface: ASP
 
Runway 12
Runway 30
Latitude: 42.569225 42.555819
Longitude: 18.2484 18.282192
Elevation: 519 ft. 519 ft.
Runway true heading: 117.6 297.6
 

Instrument Procedures

  Aerodrome Chart
  Aircraft Parking/Docking Chart

STARs (Standard Terminal Arrivals)

  STAR - Instrument (STAR) - Rwy 12/30

IAPs (Instrument Approach Procedures)

  ATC Surveillance Minimum Altitude Chart
  ILS or LOC Rwy 12
  L Rwy 12
  RNAV (GNSS) Rwy 12
  VOR Rwy 12
  VOR-A Rwy 30
  Visual Manoeuvering - Circling Chart (IFR) - Circling Rwy 30
  Visual Operation Chart
  Bird Concentrations
  Aerodrome Obstacle Chart - Type A - Rwy 12
  Aerodrome Obstacle Chart - Type A - Rwy 30
  Aerodrome Information (Textual)

Departure Procedures

  SID - Instrument (SID) - Rwy 12
  SID - Instrument (SID) - Rwy 30
Satellite photo at:
Airport distance calculator
From:
Weather Reports

METAR

LDDU

LDDU 250730Z 09004KT CAVOK 13/05 Q1021 NOSIG
LYTV
22.6nm E
LYTV 250730Z VRB01KT 9999 VCMIFG FEW036 07/07 Q1021 NOSIG

TAF

LDDU
TAF LDDU 250525Z 2506/2606 08007KT 9999 SCT050 TX14/2512Z TN09/2506Z BECMG 2510/2512 15012KT PROB30 TEMPO 2521/2606 4000 RA BKN008
LYTV
22.6nm E
TAF LYTV 250500Z 2506/2606 15006KT 9999 SCT050 TX16/2513Z TN03/2506Z TEMPO 2506/2507 3000 BR TEMPO 2521/2606 5000 RA
Safelog

 

Dauntless Aviation

© 2007-2017 Dauntless Aviation, all rights reserved
Information provided via PilotNav comes from a variety of official and unofficial data sources. As errors are possible, do not use PilotNav for primary flight planning purposes. Verify any information that you receive via PilotNav with current and canonical charts and other official documents. The material in this database is subject to database copyrights held by Dauntless Aviation and may not be copied without the express permission of Dauntless Aviation - licenses for use of part of all of this data are available for purchase; enquire via the Dauntless Aviation helpdesk. A number of mechanisms and markers exist in the database to protect against and identify infringement / copyright. Automated queries against this website are stictly prohibited, and all activity is logged and analyzed.